Terminal Aerodrome Forecast
Issued by NWS Houston/Galveston, TX

Home | Current Version | Previous Version | Text Only | Print | Product List | Glossary On
Versions: 1 2 3 4 5 6 7 8 9 10 11 12 13 14 15 16 17 18 19 20 21 22 23 24 25 26 27 28 29 30 31
000
FTUS44 KHGX 311353 AAA
TAFCLL
TAF AMD
KCLL 311353Z 3114/0112 07007KT P6SM OVC017
     FM311500 12008KT P6SM SCT020 BKN040
     FM312000 14013G19KT P6SM BKN015 OVC030
     FM312300 13012KT P6SM VCSH OVC012
     FM010600 15012KT P6SM -RA OVC007=

USA.gov is the U.S. government's official web portal to all federal, state and local government web resources and services.